Wind_Speed
21 21 23 19 19 21 20 19 15 16 18 19 22 24 25 28 30 29 31 32 31 32
17 19 16 17 14 15 15 13 12 14 16 18 20 21 22 24 25 27 29 30 32 32
10 10 9 6 3 2 7 10 11 10 12 15 18 16 15 13 13 20 27 28 31 31
22 22 22 19 15 13 11 8 7 6 7 7 8 10 7 6 5 3 2 5 5 9
30 27 27 26 24 21 22 20 19 18 18 16 13 13 13 11 10 9 10 9 7 8
30 27 25 25 21 23 21 22 21 19 19 13 15 17 15 12 13 12 11 12 11 11
24 20 19 22 18 17 18 17 16 18 13 11 13 15 14 11 12 10 10 11 12 11
17 14 16 13 11 11 10 10 11 10 10 11 14 14 13 12 10 10 9 8 9 10
12 11 11 9 8 8 9 9 10 11 11 12 12 15 15 12 8 9 10 11 12 13
8 9 9 8 9 10 10 9 9 9 10 10 9 14 14 14 9 9 11 11 13 14
6 5 6 6 7 7 7 8 9 9 10 9 9 13 14 14 11 10 11 11 13 13
7 6 6 6 7 8 9 10 10 10 10 10 10 14 16 15 11 10 10 11 12 12
6 5 5 6 6 7 8 8 9 9 8 7 8 10 12 14 13 12 13 12 11 10
5 5 6 6 6 7 7 7 7 7 6 5 6 7 9 8 8 10 12 12 12 13
Wind_Direction
222 224 225 225 233 235 230 225 217 218 230 235 239 242 244 241 243 243 245 248 246 241
222 224 222 220 230 232 231 230 230 239 239 240 242 245 246 248 245 244 243 243 246 244
92 84 77 66 56 311 270 254 238 246 252 242 246 250 249 245 257 260 250 247 244 234
78 77 77 71 73 73 79 77 118 124 120 113 118 131 128 106 61 73 36 25 356 257
78 74 72 70 71 74 73 70 74 85 78 74 70 79 65 59 53 32 20 13 5 351
67 67 68 65 62 69 67 62 54 63 68 50 57 54 54 43 41 31 19 8 6 359
59 56 55 58 47 57 66 63 54 56 55 49 58 53 43 33 33 23 22 10 1 359
69 60 61 53 49 50 51 55 65 62 59 54 45 36 33 35 13 14 7 5 357 353
63 61 58 52 49 61 58 53 56 52 44 44 40 25 25 18 8 6 6 359 356 353
43 47 41 38 38 38 38 35 37 31 32 33 33 19 15 11 14 12 8 1 359 356
42 42 39 41 39 34 27 25 21 17 19 22 25 18 12 11 8 5 359 356 352 357
19 21 22 26 22 15 8 8 10 9 10 12 12 13 12 9 360 346 347 342 341 346
12 17 16 5 1 359 359 357 354 356 355 359 359 4 3 3 357 352 343 333 330 331
13 4 4 354 350 352 350 343 339 340 340 345 360 1 360 354 350 345 330 331 330 330
Height
720 723 725 726 727 729 732 734 735 738 741 743 745 747 748 749 750 751 752 753 754 754
718 720 722 723 726 727 729 731 733 735 737 738 740 742 743 744 744 744 744 744 746 746
721 722 722 723 723 724 727 729 729 730 732 734 735 737 737 738 737 738 737 737 737 736
725 725 725 725 727 728 730 730 728 729 731 732 734 733 735 735 736 736 735 732 733 733
728 730 730 731 733 733 733 733 733 733 734 737 738 733 733 736 733 735 735 734 734 735
733 736 738 737 740 738 738 738 741 740 737 745 741 735 735 739 736 737 738 739 738 736
742 744 745 742 745 745 744 744 745 743 748 749 743 739 739 741 738 742 741 740 740 739
750 751 749 749 751 751 751 750 749 750 750 747 744 745 743 740 744 742 743 743 743 741
756 755 755 755 755 755 754 754 752 750 748 747 747 746 745 745 745 743 742 741 740 739
759 757 757 757 755 754 754 755 754 754 752 751 750 748 746 744 744 742 742 741 740 738
761 761 760 759 758 758 757 756 755 754 753 751 750 748 746 744 743 742 741 741 740 738
762 761 760 759 758 757 757 755 754 753 753 751 751 747 746 744 743 743 742 740 738 737
763 762 761 761 759 758 757 756 756 754 754 752 752 749 748 745 743 742 741 739 738 737
763 763 762 761 760 758 757 757 756 755 753 752 750 749 748 748 747 745 742 739 736 735